Scammon Bay, AK

1:08 PM AKST on December 06, 2016 (GMT -0900)
Cape Romanzof LRRS

Weather History for PACZ - November, 2012

Change the Weather History Date:

Wednesday, November 14, 2012

  Actual Average Record
Temperature  
Mean Temperature 24 °F -  
Max Temperature 35 °F 29 °F 46 °F (2014)
Min Temperature 12 °F 21 °F 8 °F (2001)
Degree Days  
Heating Degree Days 42    
Moisture  
Dew Point 21 °F    
Average Humidity 90    
Maximum Humidity 100    
Minimum Humidity 79    
Precipitation  
Precipitation 0.02 in - - ()
Sea Level Pressure  
Sea Level Pressure 29.37 in    
Wind  
Wind Speed 31 mph (ENE)    
Max Wind Speed 61 mph    
Max Gust Speed 69 mph    
Visibility 2 miles    
Events Rain , Snow    
Averages and records for this station are not official NWS values.
T = Trace of Precipitation, MM = Missing Value Source: NWS Daily Summary

Daily Weather History Graph

Daily Weather History Graph

Search for Another Location

Airport or City:

Trip Planner

Search our weather history database for the weather conditions in past years. The results will help you decide how hot, cold, wet, or windy it might be!

Date:

Astronomy

Nov. 14, 2012 Rise Set
Actual Time 10:13 AM AKST 5:23 PM AKST
Civil Twilight 9:20 AM AKST 6:16 PM AKST
Nautical Twilight 8:25 AM AKST 7:11 PM AKST
Astronomical Twilight 7:33 AM AKST 8:03 PM AKST
Moon 11:41 AM AKST (11/14) 5:58 PM AKST (11/14)
Length of Visible Light 8h 55m
Length of Day
7h 09m
New Moon, 1% of the Moon is Illuminated
Nov 14
New Moon
Nov 20
First Quarter
Nov 28
Full
Dec 6
Last Quarter
Dec 12
New

Hourly Weather History & Observations

Time (AKST) Temp. Windchill Dew Point Humidity Pressure Visibility Wind Dir Wind Speed Gust Speed Precip Events Conditions
12:01 AM 32.0 °F 17.9 °F 30.2 °F 93% 29.21 in 1.0 mi ESE 28.8 mph 34.5 mph N/A Rain Light Freezing Rain
12:16 AM 32.0 °F 18.1 °F 30.2 °F 93% 29.21 in 1.0 mi ESE 27.6 mph 34.5 mph N/A Rain Light Freezing Rain
12:31 AM 30.2 °F 15.7 °F 28.4 °F 93% 29.21 in 1.0 mi East 27.6 mph 35.7 mph N/A Rain Light Freezing Rain
12:46 AM 32.0 °F 17.2 °F 30.2 °F 93% 29.21 in 1.2 mi East 32.2 mph 39.1 mph N/A   Light Freezing Drizzle
12:55 AM 32.0 °F 17.9 °F 30.4 °F 94% 29.21 in 1.5 mi East 28.8 mph 39.1 mph N/A   Light Freezing Drizzle
1:16 AM 33.8 °F 20.3 °F 32.0 °F 93% 29.22 in 3.0 mi East 28.8 mph 36.8 mph N/A   Light Freezing Drizzle
1:31 AM 32.0 °F 17.9 °F 30.2 °F 93% 29.22 in 3.0 mi East 28.8 mph 34.5 mph N/A   Light Drizzle
1:55 AM 33.1 °F 18.9 °F 30.2 °F 89% 29.22 in 2.5 mi East 31.1 mph 36.8 mph N/A Rain Light Rain
2:16 AM 33.8 °F 19.9 °F 30.2 °F 87% 29.21 in 3.0 mi ESE 31.1 mph 39.1 mph N/A Rain Light Rain
2:55 AM 34.0 °F 21.3 °F 30.6 °F 87% 29.21 in 5.0 mi East 25.3 mph 35.7 mph 0.00 in Rain Light Rain
3:31 AM 35.6 °F 23.4 °F 30.2 °F 81% 29.21 in 9.0 mi East 25.3 mph 33.4 mph N/A   Mostly Cloudy
3:46 AM 33.8 °F 22.8 °F 30.2 °F 87% 29.22 in 10.0 mi East 18.4 mph 27.6 mph N/A Rain Light Rain Showers
3:55 AM 32.2 °F 20.4 °F 28.2 °F 85% 29.22 in 6.0 mi ENE 19.6 mph 27.6 mph 0.00 in Rain Light Rain Showers
4:01 AM 30.2 °F 16.8 °F 26.6 °F 86% 29.22 in 1.8 mi ENE 23.0 mph 32.2 mph N/A Rain Light Freezing Rain
4:16 AM 32.0 °F 19.2 °F 28.4 °F 87% 29.22 in 8.0 mi East 23.0 mph 27.6 mph N/A Rain Light Freezing Rain
4:31 AM 33.8 °F 21.0 °F 30.2 °F 87% 29.21 in 7.0 mi East 25.3 mph 35.7 mph N/A   Light Drizzle
4:46 AM 33.8 °F 21.0 °F 30.2 °F 87% 29.22 in 4.0 mi East 25.3 mph 33.4 mph N/A   Light Drizzle
4:55 AM 32.7 °F 19.3 °F 29.1 °F 87% 29.22 in 5.0 mi East 26.5 mph 35.7 mph N/A   Light Drizzle
5:16 AM 32.0 °F 18.6 °F 28.4 °F 87% 29.22 in 1.8 mi East 25.3 mph 34.5 mph N/A Rain Light Freezing Rain
5:55 AM 30.7 °F 16.9 °F 28.6 °F 92% 29.23 in 0.8 mi East 25.3 mph 34.5 mph N/A Rain Light Freezing Rain
6:01 AM 30.2 °F 17.1 °F 28.4 °F 93% 29.23 in 0.8 mi East 21.9 mph 35.7 mph N/A   Light Ice Pellets
6:16 AM 28.4 °F 15.1 °F 26.6 °F 93% 29.24 in 0.8 mi East 20.7 mph 32.2 mph N/A Snow Light Snow
6:31 AM 28.4 °F 14.7 °F 26.6 °F 93% 29.25 in 0.8 mi East 21.9 mph 32.2 mph N/A Snow Light Snow
6:46 AM 30.2 °F 17.1 °F 28.4 °F 93% 29.25 in 0.8 mi East 21.9 mph 29.9 mph N/A Snow Light Snow
6:55 AM 29.7 °F 15.8 °F 27.5 °F 92% 29.24 in 0.8 mi East 24.2 mph 33.4 mph N/A Snow Light Snow
7:16 AM 32.0 °F 19.2 °F 28.4 °F 87% 29.25 in 1.5 mi East 23.0 mph 29.9 mph N/A Snow Light Snow
7:46 AM 28.4 °F 16.2 °F 26.6 °F 93% 29.26 in 0.8 mi East 17.3 mph 28.8 mph N/A Snow Light Snow
7:55 AM 28.4 °F 15.1 °F 25.3 °F 88% 29.27 in 0.8 mi East 20.7 mph 29.9 mph 0.00 in Snow Light Snow
8:10 AM 28.4 °F 15.1 °F 24.8 °F 86% 29.27 in 0.8 mi East 20.7 mph 29.9 mph N/A Snow Light Snow
8:16 AM 26.6 °F 12.7 °F 24.8 °F 93% 29.27 in 0.5 mi East 20.7 mph 29.9 mph N/A Snow Light Snow
8:53 AM 28.4 °F 15.1 °F 23.0 °F 80% 29.29 in 1.2 mi NE 20.7 mph 28.8 mph N/A Snow Light Snow
8:55 AM 27.1 °F 13.1 °F 22.1 °F 81% 29.30 in 1.2 mi ENE 21.9 mph 28.8 mph N/A Snow Light Snow
9:08 AM 21.2 °F 5.2 °F 19.4 °F 93% 29.32 in 0.5 mi ENE 21.9 mph 29.9 mph N/A Snow Light Snow
9:23 AM 23.0 °F 8.0 °F 21.2 °F 93% 29.32 in 1.0 mi ENE 20.7 mph 27.6 mph N/A Snow Light Snow
9:38 AM 24.8 °F 8.7 °F 21.2 °F 86% 29.32 in 0.8 mi ENE 26.5 mph 32.2 mph N/A Rain Light Freezing Rain
9:53 AM 23.0 °F 6.3 °F 21.2 °F 93% 29.32 in 1.2 mi East 26.5 mph 32.2 mph N/A Rain Light Freezing Rain
9:55 AM 23.5 °F 7.6 °F 21.0 °F 90% 29.32 in 1.0 mi ENE 24.2 mph 32.2 mph N/A Rain Light Freezing Rain
10:08 AM 23.0 °F 5.7 °F 21.2 °F 93% 29.32 in 0.5 mi ENE 28.8 mph 35.7 mph N/A Rain Light Freezing Rain
10:23 AM 26.6 °F 9.8 °F 23.0 °F 86% 29.31 in 0.8 mi ENE 32.2 mph 36.8 mph N/A Snow Light Snow
10:38 AM 21.2 °F 1.2 °F 19.4 °F 93% 29.31 in 0.2 mi East 38.0 mph 44.9 mph N/A Snow Snow
10:53 AM 23.0 °F 3.9 °F 21.2 °F 93% 29.31 in 0.8 mi East 36.8 mph 43.7 mph N/A Snow Light Snow
10:55 AM 24.1 °F 5.6 °F 21.9 °F 91% 29.31 in 0.8 mi East 35.7 mph 43.7 mph N/A Snow Light Snow
11:38 AM 21.2 °F 1.2 °F 19.4 °F 93% 29.32 in 0.5 mi East 38.0 mph 44.9 mph N/A   Light Ice Pellets
11:53 AM 21.2 °F 1.4 °F 19.4 °F 93% 29.34 in 0.5 mi East 36.8 mph 43.7 mph N/A Snow Light Snow
11:55 AM 20.7 °F 0.7 °F 18.5 °F 91% 29.34 in 0.5 mi East 36.8 mph 43.7 mph N/A Snow Light Snow
12:08 PM 19.4 °F 1.4 °F 17.6 °F 93% 29.37 in 0.2 mi ENE 26.5 mph 41.4 mph N/A Snow Heavy Snow
12:23 PM 19.4 °F 0.8 °F 17.6 °F 93% 29.38 in 0.2 mi ENE 28.8 mph 38.0 mph N/A Snow Heavy Snow
12:38 PM 19.4 °F 0.8 °F 17.6 °F 93% 29.39 in 0.5 mi NE 28.8 mph 38.0 mph N/A Snow Snow
12:53 PM 19.4 °F 0.8 °F 19.4 °F 100% 29.40 in 0.2 mi ENE 28.8 mph 40.3 mph N/A Snow Snow
12:55 PM 19.6 °F 2.0 °F 18.9 °F 97% 29.41 in 0.2 mi ENE 25.3 mph 40.3 mph N/A Snow Snow
1:55 PM 20.5 °F -0.3 °F 19.6 °F 96% 29.40 in 0.2 mi NE 40.3 mph 46.0 mph N/A Snow Heavy Snow
2:38 PM 19.4 °F -2.9 °F 19.4 °F 100% 29.40 in 0.2 mi NE 46.0 mph 54.1 mph N/A Snow Heavy Snow
2:55 PM 19.6 °F -2.2 °F 18.5 °F 96% 29.43 in 0.2 mi NE 43.7 mph 49.5 mph N/A Snow Heavy Snow
3:23 PM 19.4 °F -2.2 °F 17.6 °F 93% 29.45 in 0.2 mi NE 42.6 mph 50.6 mph N/A Snow Heavy Snow
3:38 PM 19.4 °F -1.8 °F 15.8 °F 86% 29.46 in 0.5 mi NE 40.3 mph 49.5 mph N/A Snow Snow
3:53 PM 19.4 °F -2.0 °F 15.8 °F 86% 29.47 in 0.5 mi NE 41.4 mph 50.6 mph N/A Snow Snow
3:55 PM 19.2 °F -2.3 °F 16.0 °F 87% 29.48 in 0.5 mi NE 41.4 mph 49.5 mph N/A Snow Snow
4:08 PM 19.4 °F -1.3 °F 17.6 °F 93% 29.49 in 0.8 mi NE 38.0 mph 48.3 mph N/A Snow Snow
4:23 PM 19.4 °F -2.4 °F 17.6 °F 93% 29.48 in 0.2 mi NE 43.7 mph 51.8 mph N/A   Light Ice Pellets
4:38 PM 17.6 °F -5.6 °F 17.6 °F 100% 29.47 in 0.2 mi NE 47.2 mph 55.2 mph N/A Snow Heavy Snow
4:53 PM 17.6 °F -6.4 °F 17.6 °F 100% 29.46 in 0.2 mi NE 51.8 mph 61.0 mph N/A Snow Heavy Snow
4:55 PM 17.8 °F -6.3 °F 16.7 °F 96% 29.46 in 0.2 mi NE 52.9 mph 61.0 mph N/A Snow Heavy Snow
5:08 PM 17.6 °F -6.0 °F 15.8 °F 93% 29.49 in 0.2 mi NE 49.5 mph 58.7 mph N/A Snow Heavy Snow
5:55 PM 16.5 °F -9.0 °F 15.3 °F 95% 29.47 in 0.2 mi NE 58.7 mph 66.7 mph N/A Snow Heavy Snow
6:23 PM 15.8 °F -10.4 °F 14.0 °F 93% 29.49 in 0.2 mi NE 61.0 mph 69.0 mph N/A Snow Heavy Snow
6:55 PM 15.1 °F -10.0 °F 13.3 °F 93% 29.56 in 0.2 mi NE 51.8 mph 59.8 mph N/A Snow Heavy Snow
7:55 PM 14.2 °F -10.4 °F 12.2 °F 92% 29.62 in 0.2 mi NE 47.2 mph 55.2 mph N/A Snow Heavy Snow
8:55 PM 14.4 °F -11.4 °F 11.8 °F 90% 29.65 in 0.2 mi NE 54.1 mph 61.0 mph N/A Snow Heavy Snow
9:38 PM 14.0 °F -11.3 °F 10.4 °F 86% 29.70 in 0.5 mi NE 50.6 mph 62.1 mph N/A Snow Heavy Snow
9:53 PM 14.0 °F -11.3 °F 10.4 °F 86% 29.71 in 0.8 mi NE 50.6 mph 58.7 mph N/A Snow Snow
9:55 PM 13.3 °F -12.3 °F 10.0 °F 87% 29.71 in 0.5 mi NE 50.6 mph 58.7 mph N/A Snow Snow
10:53 PM 14.0 °F -10.7 °F 8.6 °F 79% 29.77 in 1.0 mi NE 47.2 mph 55.2 mph N/A Snow Light Snow
10:55 PM 12.9 °F -12.4 °F 9.3 °F 86% 29.78 in 1.0 mi NE 48.3 mph 57.5 mph N/A Snow Light Snow
11:08 PM 12.2 °F -13.2 °F 8.6 °F 85% 29.80 in 1.2 mi NE 47.2 mph 54.1 mph N/A Snow Light Snow
11:23 PM 12.2 °F -11.0 °F 8.6 °F 85% 29.82 in 4.0 mi NE 36.8 mph 48.3 mph N/A Snow Light Snow
11:55 PM 12.6 °F -10.8 °F 7.5 °F 80% 29.85 in 4.0 mi NE 38.0 mph 48.3 mph N/A Snow Light Snow